EW8434 Weather Reports


Display with metric or nautical units.
time (UTC)temp
F
wind
direction
speed
MPH
gust
MPH
rain 1hr
in
rain 24hr
in
rain mn
in
humidity
%
barometer
mb
20260506013931 69 298 4.0 9.0 0.00 0.48 0.18 34 1012.6
20260506013432 70 320 4.0 11.0 0.00 0.48 0.18 34 1012.5
20260506012931 70 277 5.0 13.0 0.00 0.48 0.18 34 1012.5
20260506012432 70 355 5.0 13.0 0.00 0.48 0.18 34 1012.5
20260506011937 71 0 4.0 12.0 0.00 0.48 0.18 34 1012.4
20260506010934 71 26 3.0 10.0 0.00 0.49 0.18 33 1012.5
20260506010434 72 295 5.0 18.0 0.00 0.49 0.18 32 1012.2
20260506005932 72 330 5.0 18.0 0.00 0.49 0.18 32 1012.1
20260506005434 72 9 3.0 14.0 0.00 0.49 0.18 31 1012.1
20260506004433 73 344 3.0 10.0 0.00 0.50 0.18 29 1012.1
20260506003932 74 227 3.0 11.0 0.00 0.50 0.18 29 1012.0
20260506003437 74 336 2.0 11.0 0.00 0.50 0.18 29 1012.0
20260506002935 74 267 3.0 12.0 0.00 0.51 0.18 29 1011.8
20260506002434 74 243 3.0 12.0 0.00 0.51 0.18 28 1011.9
20260506001432 74 263 2.0 9.0 0.00 0.51 0.18 29 1011.8
20260506000934 74 243 2.0 12.0 0.00 0.51 0.18 29 1011.8
20260506000434 76 0 2.0 12.0 0.00 0.51 0.18 28 1011.8
20260505235432 76 0 2.0 7.0 0.00 0.51 0.18 28 1011.7
20260505234934 76 59 3.0 8.0 0.00 0.51 0.18 27 1011.6
20260505234430 76 0 2.0 10.0 0.00 0.51 0.18 25 1011.6
20260505233924 76 0 2.0 10.0 0.00 0.51 0.18 27 1011.6
20260505233425 77 328 2.0 9.0 0.00 0.51 0.18 28 1011.6
20260505232924 77 324 3.0 11.0 0.00 0.51 0.18 29 1011.6
20260505231924 74 257 3.0 9.0 0.00 0.51 0.18 31 1011.6
20260505231420 74 259 4.0 12.0 0.00 0.51 0.18 31 1011.7
20260505230920 75 208 3.0 12.0 0.00 0.51 0.18 32 1011.7
20260505230420 73 244 3.0 9.0 0.00 0.51 0.18 31 1011.7
20260505225919 75 254 3.0 9.0 0.00 0.51 0.18 31 1011.9
20260505225419 76 242 3.0 9.0 0.00 0.51 0.18 30 1011.9
20260505224922 75 296 3.0 9.0 0.00 0.51 0.18 30 1011.9
20260505224422 75 350 3.0 9.0 0.00 0.51 0.18 30 1011.9
20260505223922 76 254 3.0 10.0 0.00 0.51 0.18 30 1011.9
20260505223420 75 350 3.0 10.0 0.00 0.51 0.18 31 1011.9
20260505222920 75 314 3.0 9.0 0.00 0.51 0.18 30 1012.1
20260505222418 76 309 3.0 11.0 0.00 0.51 0.18 29 1012.1
20260505221926 76 249 3.0 12.0 0.00 0.51 0.18 29 1012.1
20260505220924 76 263 3.0 13.0 0.00 0.51 0.18 31 1012.2
20260505220423 76 259 3.0 13.0 0.00 0.51 0.18 32 1012.3
20260505215421 74 211 3.0 11.0 0.00 0.51 0.18 33 1012.5
20260505214914 77 212 3.0 8.0 0.00 0.51 0.18 32 1012.5
20260505214416 76 254 3.0 10.0 0.00 0.51 0.18 32 1012.5
20260505213913 76 237 3.0 10.0 0.00 0.51 0.18 31 1012.5
20260505213416 76 290 3.0 15.0 0.00 0.51 0.18 32 1012.5
20260505212913 76 285 3.0 15.0 0.00 0.51 0.18 31 1012.5
20260505212413 76 223 3.0 9.0 0.00 0.51 0.18 29 1012.7
20260505211416 76 265 4.0 12.0 0.00 0.51 0.18 30 1012.8
20260505210917 76 283 3.0 12.0 0.00 0.51 0.18 31 1012.8
20260505210412 76 272 4.0 11.0 0.00 0.51 0.18 33 1012.8
20260505205910 76 262 4.0 10.0 0.00 0.51 0.18 30 1012.7
20260505205410 76 317 3.0 9.0 0.00 0.51 0.18 33 1013.0
20260505204909 76 290 4.0 9.0 0.00 0.51 0.18 33 1013.1
20260505204408 76 236 3.0 12.0 0.00 0.51 0.18 36 1013.0
20260505203405 76 282 3.0 9.0 0.00 0.51 0.18 36 1013.2
20260505202905 76 282 3.0 9.0 0.00 0.51 0.18 36 1013.1
20260505200907 73 276 3.0 11.0 0.00 0.51 0.18 42 1013.3
20260505200403 71 11 3.0 11.0 0.00 0.51 0.18 44 1013.4
20260505195903 71 39 3.0 10.0 0.00 0.51 0.18 49 1013.4
20260505195357 71 355 2.0 8.0 0.00 0.51 0.18 50 1013.4
20260505193841 69 23 4.0 8.0 0.00 0.51 0.18 51 1013.5
20260505193339 70 12 2.0 6.0 0.00 0.51 0.18 52 1013.4
20260505192339 71 325 2.0 8.0 0.00 0.51 0.18 53 1013.6
20260505191839 70 32 1.0 5.0 0.00 0.51 0.18 53 1013.6
20260505191339 71 348 1.0 5.0 0.00 0.51 0.18 52 1013.6
20260505190841 70 331 2.0 5.0 0.00 0.51 0.18 51 1013.7
20260505190337 69 86 2.0 7.0 0.00 0.51 0.18 55 1013.8
20260505185837 69 347 2.0 7.0 0.00 0.51 0.18 54 1013.9
20260505185337 70 9 2.0 5.0 0.00 0.51 0.18 55 1013.9
20260505184839 69 9 1.0 5.0 0.00 0.51 0.18 55 1013.9
20260505184342 67 314 1.0 4.0 0.00 0.51 0.18 56 1014.3
20260505183840 67 220 2.0 5.0 0.00 0.51 0.18 56 1014.3
20260505183335 67 209 2.0 5.0 0.00 0.51 0.18 57 1014.3
20260505182833 67 207 2.0 4.0 0.00 0.51 0.18 59 1014.4
20260505181832 67 9 2.0 6.0 0.00 0.51 0.18 58 1014.6
20260505181333 67 323 2.0 6.0 0.00 0.51 0.18 61 1014.6
20260505180825 67 249 2.0 5.0 0.00 0.51 0.18 61 1014.6
20260505180321 67 15 3.0 5.0 0.00 0.51 0.18 59 1014.5
20260505175812 67 13 2.0 5.0 0.00 0.51 0.18 58 1014.6
20260505174305 67 284 2.0 5.0 0.00 0.51 0.18 61 1014.7
20260505173805 67 355 1.0 5.0 0.00 0.51 0.18 59 1014.7
20260505173305 67 238 1.0 5.0 0.00 0.51 0.18 57 1014.7
20260505172807 69 240 1.0 5.0 0.00 0.51 0.18 59 1014.7
20260505172306 68 155 1.0 4.0 0.00 0.51 0.18 59 1014.7
20260505171804 67 225 1.0 4.0 0.00 0.51 0.18 59 1014.8
20260505171306 67 281 1.0 5.0 0.00 0.51 0.18 61 1014.7
20260505170804 67 344 1.0 5.0 0.00 0.51 0.18 62 1014.8
20260505170305 66 307 1.0 4.0 0.00 0.51 0.18 63 1014.7
20260505165805 65 296 1.0 4.0 0.00 0.51 0.18 63 1014.6
20260505165306 66 304 1.0 4.0 0.00 0.51 0.18 64 1014.7
20260505164804 65 0 2.0 8.0 0.00 0.51 0.18 67 1014.7
20260505164304 65 0 2.0 8.0 0.00 0.51 0.18 65 1014.6
20260505163803 65 0 1.0 6.0 0.00 0.51 0.18 68 1014.6
20260505163304 64 349 1.0 4.0 0.00 0.51 0.18 71 1014.8
20260505162806 63 349 1.0 4.0 0.00 0.51 0.18 71 1014.8
20260505162300 63 57 1.0 4.0 0.00 0.51 0.18 74 1014.9
20260505161754 63 57 0.0 2.0 0.00 0.51 0.18 74 1014.9
20260505161249 62 57 0.0 1.0 0.00 0.51 0.18 75 1014.8
20260505160745 62 57 0.0 2.0 0.00 0.51 0.18 76 1014.9
20260505160236 63 57 0.0 2.0 0.00 0.51 0.18 75 1014.9
20260505153235 62 0 0.0 2.0 0.00 0.51 0.18 80 1014.6
20260505152732 62 0 0.0 1.0 0.00 0.51 0.18 78 1014.5
20260505152234 62 0 0.0 0.0 0.00 0.51 0.18 79 1014.5
20260505151732 62 0 0.0 1.0 0.00 0.51 0.18 79 1014.5
20260505151231 62 56 0.0 1.0 0.00 0.51 0.18 80 1014.5
20260505150734 61 56 0.0 1.0 0.00 0.51 0.18 82 1014.5
20260505150232 61 56 0.0 0.0 0.00 0.51 0.18 83 1014.6
20260505140231 60 56 0.0 0.0 0.00 0.51 0.18 87 1014.0
20260505130218 58 56 0.0 0.0 0.01 0.51 0.18 91 1013.7
20260505124217 58 56 0.0 0.0 0.01 0.51 0.18 91 1013.4
20260505123715 58 56 0.0 0.0 0.01 0.51 0.18 90 1013.6
20260505123213 58 56 0.0 0.0 0.01 0.51 0.18 92 1013.5
20260505122711 58 56 0.0 0.0 0.01 0.51 0.18 91 1013.3
20260505122212 58 56 0.0 0.0 0.01 0.51 0.18 90 1013.4
20260505121709 58 56 0.0 0.0 0.00 0.50 0.17 89 1013.4
20260505121206 57 56 0.0 0.0 0.00 0.50 0.17 88 1012.8
20260505120707 57 56 0.0 0.0 0.01 0.50 0.17 90 1013.1
20260505120209 58 56 0.0 1.0 0.01 0.50 0.17 90 1013.1
20260505115707 58 56 0.0 1.0 0.01 0.50 0.17 88 1013.2
20260505115207 58 56 0.0 0.0 0.01 0.50 0.17 89 1013.0
20260505114709 57 56 0.0 1.0 0.01 0.50 0.17 89 1013.0
20260505114204 57 56 0.0 2.0 0.01 0.50 0.17 89 1013.0
20260505113705 57 56 0.0 2.0 0.01 0.50 0.17 91 1013.0
20260505113205 58 56 0.0 1.0 0.02 0.50 0.17 90 1013.4
20260505112204 57 56 0.0 2.0 0.02 0.50 0.17 90 1013.3
20260505111704 57 56 1.0 3.0 0.02 0.50 0.17 90 1013.4
20260505111205 58 56 0.0 3.0 0.03 0.50 0.17 91 1013.3
20260505110704 58 28 0.0 2.0 0.02 0.49 0.16 91 1013.4
20260505110204 58 133 0.0 0.0 0.02 0.49 0.16 91 1013.6
20260505102204 58 89 0.0 3.0 0.04 0.48 0.15 91 1013.9
20260505101706 58 41 0.0 1.0 0.05 0.48 0.15 91 1014.4
20260505101207 58 41 0.0 1.0 0.04 0.47 0.14 91 1014.5
20260505100706 58 107 0.0 1.0 0.04 0.47 0.14 91 1014.6
20260505100206 58 128 0.0 1.0 0.05 0.47 0.14 91 1014.7
20260505095703 58 128 0.0 2.0 0.05 0.47 0.14 92 1014.8
20260505095209 58 128 0.0 2.0 0.05 0.47 0.14 91 1014.8
20260505094709 58 48 0.0 5.0 0.05 0.47 0.14 91 1014.9
20260505092200 58 190 2.0 8.0 0.03 0.44 0.11 91 1015.4
20260505091703 58 150 2.0 8.0 0.03 0.43 0.10 91 1015.1
20260505091159 58 153 2.0 6.0 0.03 0.43 0.10 91 1015.2
20260505090652 58 164 1.0 5.0 0.04 0.43 0.10 91 1015.2
20260505090156 58 157 1.0 5.0 0.03 0.42 0.09 91 1015.1
20260505085149 58 115 0.0 4.0 0.04 0.42 0.09 91 1015.6
20260505084649 58 311 0.0 2.0 0.05 0.42 0.09 90 1015.4
20260505084151 58 132 0.0 2.0 0.05 0.42 0.09 91 1015.8
20260505083647 59 57 0.0 2.0 0.05 0.41 0.08 91 1016.1
20260505083147 59 92 0.0 2.0 0.05 0.41 0.08 91 1016.3
20260505082642 59 92 0.0 2.0 0.06 0.41 0.08 91 1016.4
20260505082141 59 90 0.0 1.0 0.07 0.41 0.08 91 1016.4
20260505081642 58 90 0.0 2.0 0.06 0.40 0.07 91 1016.5
20260505080638 59 28 0.0 2.0 0.06 0.39 0.06 91 1016.7
20260505075634 59 28 0.0 1.0 0.06 0.38 0.05 90 1017.0
20260505075135 59 28 0.0 0.0 0.06 0.38 0.04 89 1017.1
20260505074631 59 28 0.0 0.0 0.06 0.37 0.04 91 1017.2
20260505073128 59 28 0.0 0.0 0.06 0.36 0.02 90 1017.3
20260505072622 59 28 0.0 1.0 0.06 0.35 0.02 90 1017.1
20260505072111 59 28 0.0 1.0 0.06 0.34 0.01 89 1017.1
20260505071605 59 28 0.0 0.0 0.07 0.34 0.01 90 1017.1
20260505071106 59 28 0.0 0.0 0.07 0.33 0.00 90 1017.1
20260505070606 58 28 0.0 1.0 0.08 0.33 0.00 89 1017.1
20260505070106 58 28 0.0 1.0 0.10 0.33 0.00 89 1017.0
20260505065108 58 28 0.0 1.0 0.11 0.32 0.32 88 1016.7
20260505064611 58 28 0.0 1.0 0.10 0.31 0.31 89 1017.0
20260505064111 58 28 1.0 1.0 0.11 0.31 0.31 89 1016.8
20260505063602 58 28 0.0 2.0 0.12 0.31 0.31 89 1016.7
20260505063102 58 28 1.0 2.0 0.12 0.30 0.30 89 1016.7
20260505062601 59 28 1.0 2.0 0.11 0.29 0.29 89 1016.7
20260505062103 59 28 1.0 3.0 0.11 0.28 0.28 89 1016.8
20260505061604 59 28 1.0 3.0 0.10 0.27 0.26 89 1017.0
20260505061100 59 28 0.0 2.0 0.10 0.26 0.26 88 1017.0
20260505060602 59 28 1.0 2.0 0.09 0.25 0.25 89 1017.0
20260505055602 59 9 1.0 2.0 0.06 0.22 0.22 88 1016.8
20260505055102 59 9 1.0 5.0 0.05 0.21 0.21 87 1016.8
20260505054557 59 9 1.0 5.0 0.05 0.20 0.20 88 1016.7
20260505054050 59 9 0.0 2.0 0.05 0.20 0.20 87 1016.6
20260505053043 60 9 0.0 0.0 0.03 0.18 0.18 84 1016.8
20260505052538 59 9 0.0 0.0 0.03 0.18 0.18 88 1016.7
20260505052040 60 9 0.0 0.0 0.02 0.17 0.17 88 1016.8
20260505051543 59 9 0.0 1.0 0.03 0.17 0.17 87 1016.8
20260505051040 59 9 0.0 1.0 0.02 0.16 0.16 86 1016.6
20260505041534 60 34 0.0 2.0 0.00 0.14 0.14 83 1017.0
20260505041034 60 34 0.0 1.0 0.00 0.14 0.14 83 1016.8
20260505040030 60 34 0.0 1.0 0.01 0.14 0.14 80 1017.0
20260505035028 59 34 0.0 3.0 0.02 0.14 0.14 83 1016.5
20260505034525 59 34 1.0 3.0 0.02 0.14 0.14 83 1016.5
20260505034028 58 34 1.0 5.0 0.03 0.14 0.14 83 1016.2
20260505033523 58 178 1.0 5.0 0.03 0.14 0.14 83 1016.2
20260505033024 58 161 1.0 5.0 0.04 0.14 0.14 82 1016.0
20260505032523 57 235 0.0 3.0 0.04 0.14 0.14 84 1015.8
20260505032024 57 166 1.0 3.0 0.05 0.14 0.14 83 1015.7
20260505031526 56 163 2.0 4.0 0.05 0.14 0.14 82 1015.9
20260505031026 56 48 1.0 4.0 0.06 0.14 0.14 82 1016.0
20260505030529 56 355 1.0 4.0 0.06 0.13 0.13 81 1016.4
20260505030022 56 345 1.0 3.0 0.07 0.13 0.13 82 1016.7
20260505025522 57 277 0.0 3.0 0.08 0.13 0.13 83 1016.8
20260505025025 57 82 0.0 4.0 0.08 0.12 0.12 83 1017.0
20260505024522 57 113 0.0 4.0 0.08 0.12 0.12 82 1017.1
20260505024022 57 71 0.0 1.0 0.08 0.11 0.11 83 1017.0
20260505023525 57 71 0.0 2.0 0.08 0.11 0.11 83 1017.0
20260505022515 57 74 0.0 2.0 0.07 0.10 0.10 82 1017.0
20260505022018 58 74 0.0 2.0 0.06 0.09 0.09 80 1017.1
20260505021519 58 74 0.0 2.0 0.06 0.09 0.09 79 1017.0
20260505021015 58 74 0.0 2.0 0.06 0.08 0.08 80 1017.0
20260505020515 58 325 0.0 1.0 0.05 0.07 0.07 78 1016.8
20260505020014 59 325 0.0 0.0 0.04 0.06 0.06 79 1017.0
20260505015517 60 325 0.0 1.0 0.03 0.05 0.05 78 1016.8
20260505015016 61 325 0.0 1.0 0.03 0.04 0.04 71 1016.7
20260505014512 61 325 2.0 9.0 0.03 0.04 0.04 67 1016.7
20260505014010 63 325 4.0 9.0 0.02 0.03 0.03 55 1016.6